{"data":{"norad_id":66195,"intl_designator":"2025-243U","name":"STARLINK-34813","alt_names":[],"object_type":"PAYLOAD","status":"ACTIVE","operator":null,"country":"US","launch_date":"2025-10-26","launch_site_code":"AFETR","launch_vehicle":null,"mission":null,"orbit_class":"UNKNOWN","rcs_meters":null,"size_class":null,"mass_kg":null,"dimensions":null,"purposes":["comms"],"wikipedia_slug":null,"has_3d_model":false,"image_url":null,"decayed_at":null,"tle_current":{"epoch":"2026-09-20T23:12:45.452736Z","epoch_age_seconds":60082,"freshness":"FRESH","line1":"1 66195U 25243U   26263.96719274  .00023109  00000+0  69345-3 0  9991","line2":"2 66195  53.1584  55.2262 0000692  89.4377 270.6705 15.34377910 50598","mean_motion":15.3437791,"eccentricity":6.92e-5,"inclination_deg":53.1584,"raan_deg":55.2262,"arg_perigee_deg":89.4377,"mean_anomaly_deg":270.6705,"bstar":0.00069345,"rev_number":5059,"period_min":93.849109180671,"perigee_km":462.29550644197,"apogee_km":463.24228781814,"semimajor_km":6840.9058971301,"source":"CELESTRAK","updated_at":"2026-09-21T09:00:35.837352Z"}}}